| time (UTC) | temp F | wind direction | speed MPH | gust MPH | rain 1hr in | rain 24hr in | rain mn in | humidity % | barometer mb |
| 20260506051123 | 60 | 218 | 1.0 | 3.0 | 0.00 | 0.00 | 0.00 | 74 | 1008.3 |
| 20260506050637 | 59 | 221 | 1.0 | 3.0 | 0.00 | 0.00 | 0.00 | 73 | 1008.2 |
| 20260506050124 | 59 | 216 | 1.0 | 3.0 | 0.00 | 0.00 | 0.00 | 75 | 1008.2 |
| 20260506044619 | 60 | 215 | 0.0 | 0.0 | 0.00 | 0.00 | 0.00 | 73 | 1008.4 |
| 20260506044133 | 60 | 216 | 0.0 | 0.0 | 0.00 | 0.00 | 0.00 | 72 | 1008.3 |
| 20260506043620 | 60 | 215 | 0.0 | 0.0 | 0.00 | 0.00 | 0.00 | 74 | 1008.2 |
| 20260506043154 | 60 | 214 | 0.0 | 0.0 | 0.00 | 0.00 | 0.00 | 72 | 1008.2 |
| 20260506042623 | 60 | 214 | 0.0 | 0.0 | 0.00 | 0.00 | 0.00 | 71 | 1008.2 |
| 20260506042117 | 60 | 215 | 0.0 | 0.0 | 0.00 | 0.00 | 0.00 | 72 | 1008.2 |
| 20260506041632 | 60 | 266 | 0.0 | 4.0 | 0.00 | 0.00 | 0.00 | 70 | 1008.2 |
| 20260506041143 | 60 | 232 | 1.0 | 3.0 | 0.00 | 0.00 | 0.00 | 72 | 1008.3 |
| 20260506040615 | 60 | 211 | 0.0 | 3.0 | 0.00 | 0.00 | 0.00 | 71 | 1008.2 |
| 20260506040130 | 60 | 211 | 0.0 | 3.0 | 0.00 | 0.00 | 0.00 | 70 | 1008.3 |
| 20260506035619 | 60 | 216 | 0.0 | 2.0 | 0.00 | 0.00 | 0.00 | 71 | 1008.3 |
| 20260506035149 | 60 | 215 | 0.0 | 0.0 | 0.00 | 0.00 | 0.00 | 71 | 1008.4 |
| 20260506034623 | 61 | 215 | 0.0 | 0.0 | 0.00 | 0.00 | 0.00 | 71 | 1008.5 |
| 20260506034138 | 61 | 215 | 0.0 | 1.0 | 0.00 | 0.00 | 0.00 | 69 | 1008.5 |
| 20260506033623 | 61 | 215 | 0.0 | 1.0 | 0.00 | 0.00 | 0.00 | 68 | 1008.5 |
| 20260506033118 | 61 | 216 | 0.0 | 3.0 | 0.00 | 0.00 | 0.00 | 68 | 1008.5 |
| 20260506032632 | 61 | 216 | 0.0 | 3.0 | 0.00 | 0.00 | 0.00 | 68 | 1008.4 |
| 20260506032120 | 61 | 218 | 0.0 | 0.0 | 0.00 | 0.00 | 0.00 | 68 | 1008.3 |
| 20260506031654 | 61 | 218 | 0.0 | 4.0 | 0.00 | 0.00 | 0.00 | 69 | 1008.2 |
| 20260506031119 | 61 | 219 | 0.0 | 7.0 | 0.00 | 0.00 | 0.00 | 65 | 1008.2 |
| 20260506030634 | 60 | 237 | 3.0 | 7.0 | 0.00 | 0.00 | 0.00 | 67 | 1008.2 |
| 20260506030120 | 61 | 176 | 0.0 | 1.0 | 0.00 | 0.00 | 0.00 | 68 | 1008.1 |
| 20260506025656 | 61 | 176 | 0.0 | 2.0 | 0.00 | 0.00 | 0.00 | 66 | 1008.1 |
| 20260506025121 | 62 | 226 | 0.0 | 2.0 | 0.00 | 0.00 | 0.00 | 64 | 1008.1 |
| 20260506024616 | 62 | 210 | 0.0 | 0.0 | 0.00 | 0.00 | 0.00 | 63 | 1008.2 |
| 20260506024133 | 63 | 210 | 0.0 | 0.0 | 0.00 | 0.00 | 0.00 | 61 | 1008.2 |
| 20260506023619 | 63 | 224 | 0.0 | 3.0 | 0.00 | 0.00 | 0.00 | 61 | 1008.3 |
| 20260506023135 | 64 | 229 | 1.0 | 3.0 | 0.00 | 0.00 | 0.00 | 58 | 1008.2 |
| 20260506022621 | 64 | 205 | 0.0 | 4.0 | 0.00 | 0.00 | 0.00 | 59 | 1008.3 |
| 20260506022134 | 64 | 205 | 1.0 | 4.0 | 0.00 | 0.00 | 0.00 | 56 | 1008.2 |
| 20260506021622 | 64 | 191 | 0.0 | 1.0 | 0.00 | 0.00 | 0.00 | 57 | 1008.3 |
| 20260506021136 | 64 | 191 | 0.0 | 6.0 | 0.00 | 0.00 | 0.00 | 57 | 1008.4 |
| 20260506020623 | 64 | 174 | 2.0 | 6.0 | 0.00 | 0.00 | 0.00 | 55 | 1008.3 |
| 20260506020154 | 65 | 176 | 1.0 | 2.0 | 0.00 | 0.00 | 0.00 | 56 | 1008.2 |
| 20260506015642 | 66 | 197 | 0.0 | 2.0 | 0.00 | 0.00 | 0.00 | 53 | 1008.2 |
| 20260506015134 | 66 | 203 | 0.0 | 5.0 | 0.00 | 0.00 | 0.00 | 51 | 1008.2 |
| 20260506014620 | 66 | 176 | 0.0 | 8.0 | 0.00 | 0.00 | 0.00 | 51 | 1008.2 |
| 20260506014136 | 67 | 188 | 4.0 | 8.0 | 0.00 | 0.00 | 0.00 | 51 | 1008.2 |
| 20260506013623 | 67 | 220 | 1.0 | 4.0 | 0.00 | 0.00 | 0.00 | 50 | 1008.2 |
| 20260506013118 | 66 | 206 | 2.0 | 4.0 | 0.00 | 0.00 | 0.00 | 50 | 1008.1 |
| 20260506012655 | 67 | 173 | 1.0 | 6.0 | 0.00 | 0.00 | 0.00 | 51 | 1008.2 |
| 20260506012120 | 67 | 162 | 3.0 | 6.0 | 0.00 | 0.00 | 0.00 | 50 | 1008.1 |
| 20260506011634 | 68 | 176 | 0.0 | 7.0 | 0.00 | 0.00 | 0.00 | 49 | 1008.2 |
| 20260506011122 | 68 | 187 | 0.0 | 4.0 | 0.00 | 0.00 | 0.00 | 48 | 1008.0 |
| 20260506010634 | 69 | 193 | 1.0 | 5.0 | 0.00 | 0.00 | 0.00 | 47 | 1008.1 |
| 20260506010121 | 69 | 199 | 1.0 | 9.0 | 0.00 | 0.00 | 0.00 | 46 | 1008.0 |
| 20260506005637 | 69 | 177 | 5.0 | 9.0 | 0.00 | 0.00 | 0.00 | 45 | 1007.9 |
| 20260506005125 | 69 | 193 | 3.0 | 13.0 | 0.00 | 0.00 | 0.00 | 45 | 1007.9 |
| 20260506004620 | 70 | 193 | 3.0 | 9.0 | 0.00 | 0.00 | 0.00 | 45 | 1007.9 |
| 20260506004156 | 70 | 173 | 5.0 | 9.0 | 0.00 | 0.00 | 0.00 | 45 | 1008.0 |
| 20260506003620 | 70 | 199 | 3.0 | 8.0 | 0.00 | 0.00 | 0.00 | 44 | 1007.9 |
| 20260506003134 | 70 | 202 | 1.0 | 5.0 | 0.00 | 0.00 | 0.00 | 44 | 1007.9 |
| 20260506002623 | 70 | 182 | 1.0 | 7.0 | 0.00 | 0.00 | 0.00 | 44 | 1007.8 |
| 20260506002117 | 71 | 187 | 2.0 | 8.0 | 0.00 | 0.00 | 0.00 | 43 | 1007.7 |
| 20260506001627 | 71 | 172 | 5.0 | 8.0 | 0.00 | 0.00 | 0.00 | 43 | 1007.7 |
| 20260506001144 | 71 | 173 | 4.0 | 9.0 | 0.00 | 0.00 | 0.00 | 43 | 1007.7 |
| 20260506000617 | 71 | 200 | 3.0 | 11.0 | 0.00 | 0.01 | 0.00 | 41 | 1007.6 |
| 20260506000130 | 71 | 193 | 0.0 | 8.0 | 0.00 | 0.01 | 0.00 | 42 | 1007.6 |
| 20260505235623 | 72 | 241 | 3.0 | 9.0 | 0.00 | 0.01 | 0.00 | 42 | 1007.5 |
| 20260505235158 | 72 | 207 | 4.0 | 11.0 | 0.00 | 0.01 | 0.00 | 42 | 1007.6 |
| 20260505234625 | 72 | 204 | 6.0 | 14.0 | 0.00 | 0.01 | 0.00 | 41 | 1007.6 |
| 20260505234120 | 72 | 166 | 9.0 | 14.0 | 0.00 | 0.01 | 0.00 | 41 | 1007.6 |
| 20260505233654 | 72 | 207 | 8.0 | 14.0 | 0.00 | 0.01 | 0.00 | 42 | 1007.5 |
| 20260505233121 | 73 | 193 | 3.0 | 11.0 | 0.00 | 0.01 | 0.00 | 41 | 1007.5 |
| 20260505232638 | 73 | 194 | 1.0 | 23.0 | 0.00 | 0.01 | 0.00 | 40 | 1007.5 |
| 20260505232124 | 73 | 176 | 13.0 | 24.0 | 0.00 | 0.01 | 0.00 | 40 | 1007.3 |
| 20260505231637 | 73 | 212 | 3.0 | 14.0 | 0.00 | 0.01 | 0.00 | 41 | 1007.4 |
| 20260505231132 | 73 | 207 | 6.0 | 19.0 | 0.00 | 0.01 | 0.00 | 40 | 1007.3 |
| 20260505230619 | 73 | 193 | 6.0 | 19.0 | 0.00 | 0.01 | 0.00 | 41 | 1007.3 |
| 20260505230134 | 74 | 249 | 10.0 | 18.0 | 0.00 | 0.01 | 0.00 | 41 | 1007.3 |
| 20260505225620 | 74 | 204 | 8.0 | 15.0 | 0.00 | 0.01 | 0.00 | 42 | 1007.5 |
| 20260505225132 | 74 | 204 | 6.0 | 19.0 | 0.00 | 0.01 | 0.00 | 42 | 1007.5 |
| 20260505224619 | 74 | 195 | 11.0 | 19.0 | 0.00 | 0.01 | 0.00 | 41 | 1007.5 |
| 20260505224135 | 74 | 178 | 11.0 | 25.0 | 0.00 | 0.01 | 0.00 | 40 | 1007.6 |
| 20260505223622 | 74 | 234 | 17.0 | 25.0 | 0.00 | 0.01 | 0.00 | 40 | 1007.7 |
| 20260505223122 | 75 | 236 | 12.0 | 25.0 | 0.00 | 0.01 | 0.00 | 41 | 1007.7 |
| 20260505222618 | 75 | 226 | 13.0 | 25.0 | 0.00 | 0.01 | 0.00 | 40 | 1007.7 |
| 20260505222131 | 76 | 171 | 7.0 | 25.0 | 0.00 | 0.01 | 0.00 | 41 | 1007.6 |
| 20260505221625 | 76 | 210 | 14.0 | 25.0 | 0.00 | 0.01 | 0.00 | 39 | 1007.5 |
| 20260505221121 | 76 | 203 | 4.0 | 16.0 | 0.00 | 0.01 | 0.00 | 40 | 1007.5 |
| 20260505220615 | 76 | 192 | 8.0 | 21.0 | 0.00 | 0.01 | 0.00 | 39 | 1007.4 |
| 20260505220131 | 76 | 210 | 12.0 | 21.0 | 0.00 | 0.01 | 0.00 | 39 | 1007.4 |
| 20260505215639 | 77 | 198 | 5.0 | 15.0 | 0.00 | 0.01 | 0.00 | 40 | 1007.3 |
| 20260505215133 | 77 | 183 | 8.0 | 15.0 | 0.00 | 0.01 | 0.00 | 39 | 1007.4 |
| 20260505214623 | 77 | 216 | 7.0 | 16.0 | 0.00 | 0.01 | 0.00 | 39 | 1007.3 |
| 20260505214119 | 77 | 224 | 7.0 | 21.0 | 0.00 | 0.01 | 0.00 | 39 | 1007.1 |
| 20260505213632 | 77 | 188 | 10.0 | 21.0 | 0.00 | 0.01 | 0.00 | 39 | 1007.2 |
| 20260505213139 | 77 | 245 | 15.0 | 22.0 | 0.00 | 0.01 | 0.00 | 38 | 1007.1 |
| 20260505212632 | 78 | 191 | 5.0 | 17.0 | 0.00 | 0.01 | 0.00 | 40 | 1007.0 |
| 20260505212120 | 78 | 234 | 6.0 | 21.0 | 0.00 | 0.01 | 0.00 | 39 | 1007.0 |
| 20260505211636 | 78 | 227 | 11.0 | 20.0 | 0.00 | 0.01 | 0.00 | 39 | 1007.0 |
| 20260505211124 | 78 | 228 | 12.0 | 22.0 | 0.00 | 0.01 | 0.00 | 39 | 1007.0 |
| 20260505210618 | 78 | 225 | 16.0 | 25.0 | 0.00 | 0.01 | 0.00 | 38 | 1007.0 |
| 20260505210133 | 78 | 224 | 14.0 | 25.0 | 0.00 | 0.01 | 0.00 | 39 | 1007.0 |
| 20260505205619 | 79 | 216 | 11.0 | 25.0 | 0.00 | 0.01 | 0.00 | 38 | 1006.9 |
| 20260505205154 | 79 | 226 | 13.0 | 26.0 | 0.00 | 0.01 | 0.00 | 38 | 1007.1 |
| 20260505204619 | 80 | 216 | 14.0 | 26.0 | 0.00 | 0.01 | 0.00 | 38 | 1007.1 |
| 20260505204135 | 80 | 198 | 10.0 | 25.0 | 0.00 | 0.01 | 0.00 | 39 | 1006.9 |
| 20260505203622 | 80 | 203 | 13.0 | 21.0 | 0.00 | 0.01 | 0.00 | 38 | 1007.0 |
| 20260505203153 | 79 | 209 | 12.0 | 19.0 | 0.00 | 0.01 | 0.00 | 38 | 1007.0 |
| 20260505202627 | 79 | 212 | 7.0 | 21.0 | 0.00 | 0.01 | 0.00 | 40 | 1007.0 |
| 20260505202121 | 78 | 241 | 8.0 | 21.0 | 0.00 | 0.01 | 0.00 | 41 | 1007.0 |
| 20260505201616 | 79 | 242 | 11.0 | 17.0 | 0.00 | 0.01 | 0.00 | 39 | 1006.9 |
| 20260505201131 | 79 | 216 | 12.0 | 17.0 | 0.00 | 0.01 | 0.00 | 39 | 1006.9 |
| 20260505200645 | 79 | 228 | 7.0 | 18.0 | 0.00 | 0.01 | 0.00 | 39 | 1006.8 |
| 20260505200118 | 79 | 185 | 9.0 | 16.0 | 0.00 | 0.01 | 0.00 | 38 | 1007.0 |
| 20260505195633 | 79 | 175 | 4.0 | 19.0 | 0.00 | 0.01 | 0.00 | 40 | 1007.1 |
| 20260505195119 | 79 | 220 | 11.0 | 19.0 | 0.00 | 0.01 | 0.00 | 39 | 1006.9 |
| 20260505194632 | 78 | 236 | 13.0 | 24.0 | 0.00 | 0.01 | 0.00 | 39 | 1007.0 |
| 20260505194120 | 78 | 190 | 12.0 | 24.0 | 0.00 | 0.01 | 0.00 | 39 | 1007.2 |
| 20260505193634 | 78 | 234 | 9.0 | 22.0 | 0.00 | 0.01 | 0.00 | 39 | 1007.1 |
| 20260505193121 | 79 | 228 | 11.0 | 25.0 | 0.00 | 0.01 | 0.00 | 38 | 1007.2 |
| 20260505192637 | 79 | 236 | 11.0 | 26.0 | 0.00 | 0.01 | 0.00 | 40 | 1007.2 |
| 20260505192122 | 79 | 217 | 12.0 | 26.0 | 0.00 | 0.01 | 0.00 | 38 | 1007.1 |
| 20260505191636 | 79 | 174 | 11.0 | 21.0 | 0.00 | 0.01 | 0.00 | 38 | 1007.3 |
| 20260505191124 | 79 | 179 | 9.0 | 28.0 | 0.00 | 0.01 | 0.00 | 38 | 1007.2 |
| 20260505190637 | 79 | 184 | 16.0 | 28.0 | 0.00 | 0.01 | 0.00 | 38 | 1007.3 |
| 20260505190124 | 78 | 223 | 8.0 | 26.0 | 0.00 | 0.01 | 0.00 | 40 | 1007.3 |
| 20260505185638 | 78 | 184 | 8.0 | 23.0 | 0.00 | 0.01 | 0.00 | 39 | 1007.4 |
| 20260505185132 | 78 | 195 | 12.0 | 19.0 | 0.00 | 0.01 | 0.00 | 38 | 1007.5 |
| 20260505184620 | 78 | 223 | 9.0 | 23.0 | 0.00 | 0.01 | 0.00 | 38 | 1007.4 |
| 20260505184136 | 78 | 155 | 14.0 | 25.0 | 0.00 | 0.01 | 0.00 | 38 | 1007.5 |
| 20260505183622 | 79 | 190 | 16.0 | 29.0 | 0.00 | 0.01 | 0.00 | 39 | 1007.4 |
| 20260505183116 | 79 | 164 | 11.0 | 28.0 | 0.00 | 0.01 | 0.00 | 39 | 1007.4 |
| 20260505182628 | 80 | 171 | 18.0 | 25.0 | 0.00 | 0.01 | 0.00 | 37 | 1007.5 |
| 20260505182122 | 80 | 203 | 15.0 | 23.0 | 0.00 | 0.01 | 0.00 | 36 | 1007.5 |
| 20260505181617 | 80 | 191 | 8.0 | 24.0 | 0.00 | 0.01 | 0.00 | 37 | 1007.4 |
| 20260505181132 | 81 | 166 | 11.0 | 27.0 | 0.00 | 0.01 | 0.00 | 38 | 1007.6 |
| 20260505180625 | 80 | 160 | 11.0 | 24.0 | 0.00 | 0.01 | 0.00 | 39 | 1007.5 |
| 20260505180119 | 80 | 220 | 15.0 | 30.0 | 0.00 | 0.01 | 0.00 | 40 | 1007.5 |
| 20260505175634 | 80 | 151 | 16.0 | 30.0 | 0.00 | 0.01 | 0.00 | 38 | 1007.7 |
| 20260505175133 | 80 | 179 | 14.0 | 24.0 | 0.00 | 0.01 | 0.00 | 39 | 1007.8 |
| 20260505174619 | 79 | 155 | 15.0 | 22.0 | 0.00 | 0.01 | 0.00 | 40 | 1007.7 |
| 20260505174134 | 78 | 172 | 17.0 | 26.0 | 0.00 | 0.01 | 0.00 | 40 | 1007.9 |
| 20260505173621 | 77 | 174 | 16.0 | 25.0 | 0.00 | 0.01 | 0.00 | 40 | 1008.0 |
| 20260505173134 | 78 | 176 | 12.0 | 25.0 | 0.00 | 0.01 | 0.00 | 40 | 1008.0 |
| 20260505172622 | 78 | 203 | 12.0 | 22.0 | 0.00 | 0.01 | 0.00 | 41 | 1007.9 |
| 20260505172135 | 77 | 217 | 11.0 | 22.0 | 0.00 | 0.01 | 0.00 | 40 | 1008.1 |
| 20260505171641 | 77 | 187 | 13.0 | 27.0 | 0.00 | 0.01 | 0.00 | 41 | 1008.2 |
| 20260505171137 | 77 | 201 | 16.0 | 25.0 | 0.00 | 0.01 | 0.00 | 41 | 1008.4 |
| 20260505170622 | 77 | 180 | 14.0 | 29.0 | 0.00 | 0.01 | 0.00 | 41 | 1008.3 |
| 20260505170136 | 76 | 168 | 17.0 | 31.0 | 0.00 | 0.01 | 0.00 | 41 | 1008.6 |
| 20260505165622 | 77 | 222 | 17.0 | 31.0 | 0.00 | 0.01 | 0.00 | 41 | 1008.2 |
| 20260505165136 | 77 | 165 | 11.0 | 21.0 | 0.00 | 0.01 | 0.00 | 44 | 1008.4 |
| 20260505164623 | 76 | 174 | 14.0 | 23.0 | 0.00 | 0.01 | 0.00 | 44 | 1008.5 |
| 20260505164119 | 76 | 225 | 15.0 | 28.0 | 0.00 | 0.01 | 0.00 | 44 | 1008.4 |
| 20260505163634 | 76 | 199 | 16.0 | 28.0 | 0.00 | 0.01 | 0.00 | 43 | 1008.6 |
| 20260505163141 | 75 | 177 | 10.0 | 23.0 | 0.00 | 0.01 | 0.00 | 45 | 1008.5 |
| 20260505162624 | 75 | 231 | 10.0 | 28.0 | 0.00 | 0.01 | 0.00 | 44 | 1008.8 |
| 20260505162115 | 75 | 207 | 15.0 | 31.0 | 0.00 | 0.01 | 0.00 | 44 | 1009.0 |
| 20260505161624 | 75 | 203 | 12.0 | 23.0 | 0.00 | 0.01 | 0.00 | 44 | 1009.0 |
| 20260505161119 | 75 | 227 | 13.0 | 22.0 | 0.00 | 0.01 | 0.00 | 45 | 1009.1 |
| 20260505160633 | 74 | 207 | 15.0 | 23.0 | 0.00 | 0.01 | 0.00 | 45 | 1009.2 |
| 20260505160128 | 74 | 176 | 11.0 | 25.0 | 0.00 | 0.01 | 0.00 | 47 | 1009.4 |
| 20260505153123 | 73 | 207 | 19.0 | 32.0 | 0.00 | 0.01 | 0.00 | 45 | 1009.6 |
| 20260505152619 | 74 | 243 | 14.0 | 25.0 | 0.00 | 0.01 | 0.00 | 47 | 1009.5 |
| 20260505152133 | 74 | 245 | 12.0 | 28.0 | 0.00 | 0.01 | 0.00 | 48 | 1009.4 |
| 20260505151620 | 74 | 227 | 18.0 | 28.0 | 0.00 | 0.01 | 0.00 | 47 | 1009.4 |
| 20260505151135 | 73 | 214 | 15.0 | 25.0 | 0.00 | 0.01 | 0.00 | 49 | 1009.3 |
| 20260505150640 | 73 | 243 | 6.0 | 23.0 | 0.00 | 0.01 | 0.00 | 50 | 1009.3 |
| 20260505150127 | 73 | 214 | 18.0 | 25.0 | 0.00 | 0.01 | 0.00 | 48 | 1009.1 |
| 20260505140639 | 72 | 218 | 14.0 | 28.0 | 0.00 | 0.01 | 0.00 | 51 | 1009.2 |
| 20260505140133 | 72 | 207 | 9.0 | 28.0 | 0.00 | 0.01 | 0.00 | 52 | 1009.1 |
| 20260505130134 | 68 | 187 | 10.0 | 19.0 | 0.00 | 0.01 | 0.00 | 65 | 1009.3 |
| 20260505124620 | 66 | 182 | 6.0 | 11.0 | 0.00 | 0.01 | 0.00 | 70 | 1009.4 |
| 20260505124136 | 65 | 193 | 3.0 | 12.0 | 0.00 | 0.01 | 0.00 | 72 | 1009.4 |
| 20260505123623 | 64 | 215 | 5.0 | 12.0 | 0.00 | 0.01 | 0.00 | 72 | 1009.4 |
| 20260505123118 | 63 | 194 | 7.0 | 13.0 | 0.00 | 0.01 | 0.00 | 74 | 1009.5 |
| 20260505122635 | 62 | 220 | 8.0 | 10.0 | 0.00 | 0.01 | 0.00 | 75 | 1009.5 |
| 20260505122141 | 62 | 215 | 4.0 | 14.0 | 0.00 | 0.01 | 0.00 | 75 | 1009.5 |
| 20260505121629 | 62 | 180 | 6.0 | 14.0 | 0.00 | 0.01 | 0.00 | 76 | 1009.6 |
| 20260505121123 | 61 | 199 | 7.0 | 12.0 | 0.00 | 0.01 | 0.00 | 78 | 1009.6 |
| 20260505120616 | 61 | 176 | 6.0 | 11.0 | 0.00 | 0.01 | 0.00 | 78 | 1009.7 |
| 20260505120131 | 60 | 186 | 7.0 | 11.0 | 0.00 | 0.01 | 0.00 | 79 | 1009.7 |
| 20260505115628 | 59 | 205 | 6.0 | 10.0 | 0.00 | 0.01 | 0.00 | 80 | 1009.8 |
| 20260505115143 | 59 | 214 | 6.0 | 10.0 | 0.00 | 0.01 | 0.00 | 82 | 1009.9 |
| 20260505114637 | 58 | 215 | 5.0 | 10.0 | 0.00 | 0.01 | 0.00 | 83 | 1009.8 |
| 20260505114124 | 57 | 205 | 5.0 | 9.0 | 0.00 | 0.01 | 0.00 | 85 | 1009.9 |
| 20260505113618 | 56 | 224 | 6.0 | 9.0 | 0.00 | 0.01 | 0.00 | 85 | 1010.0 |
| 20260505113153 | 56 | 218 | 4.0 | 8.0 | 0.00 | 0.01 | 0.00 | 86 | 1010.0 |
| 20260505112620 | 55 | 214 | 5.0 | 7.0 | 0.00 | 0.01 | 0.00 | 86 | 1010.0 |
| 20260505112134 | 54 | 223 | 1.0 | 7.0 | 0.00 | 0.01 | 0.00 | 86 | 1009.9 |
| 20260505111643 | 54 | 230 | 4.0 | 7.0 | 0.00 | 0.01 | 0.00 | 87 | 1010.0 |
| 20260505111136 | 53 | 221 | 4.0 | 7.0 | 0.00 | 0.01 | 0.00 | 87 | 1009.9 |
| 20260505110621 | 52 | 203 | 2.0 | 7.0 | 0.00 | 0.01 | 0.00 | 87 | 1009.8 |
| 20260505110136 | 52 | 222 | 4.0 | 7.0 | 0.00 | 0.01 | 0.00 | 87 | 1009.8 |
| 20260505102125 | 52 | 218 | 0.0 | 0.0 | 0.00 | 0.01 | 0.00 | 87 | 1009.3 |
| 20260505101620 | 52 | 218 | 0.0 | 0.0 | 0.00 | 0.01 | 0.00 | 86 | 1009.3 |
| 20260505101156 | 52 | 218 | 0.0 | 0.0 | 0.00 | 0.01 | 0.00 | 86 | 1009.2 |
| 20260505100621 | 52 | 218 | 0.0 | 0.0 | 0.00 | 0.02 | 0.00 | 86 | 1009.3 |
| 20260505100135 | 52 | 218 | 0.0 | 0.0 | 0.00 | 0.02 | 0.00 | 86 | 1009.2 |
| 20260505095644 | 53 | 219 | 0.0 | 5.0 | 0.00 | 0.02 | 0.00 | 86 | 1009.1 |
| 20260505095137 | 53 | 219 | 1.0 | 7.0 | 0.00 | 0.02 | 0.00 | 87 | 1009.2 |
| 20260505094623 | 52 | 232 | 4.0 | 9.0 | 0.00 | 0.02 | 0.00 | 87 | 1009.3 |
| 20260505094138 | 51 | 219 | 5.0 | 9.0 | 0.00 | 0.02 | 0.00 | 87 | 1009.3 |
| 20260505093630 | 51 | 218 | 3.0 | 4.0 | 0.00 | 0.02 | 0.00 | 87 | 1009.3 |
| 20260505093118 | 51 | 212 | 2.0 | 7.0 | 0.00 | 0.02 | 0.00 | 87 | 1009.2 |
| 20260505092634 | 51 | 218 | 4.0 | 7.0 | 0.00 | 0.02 | 0.00 | 87 | 1009.3 |
| 20260505092121 | 50 | 200 | 3.0 | 5.0 | 0.00 | 0.02 | 0.00 | 87 | 1009.2 |
| 20260505091634 | 50 | 179 | 3.0 | 5.0 | 0.00 | 0.02 | 0.00 | 87 | 1009.3 |
| 20260505091122 | 50 | 161 | 3.0 | 5.0 | 0.00 | 0.02 | 0.00 | 87 | 1009.3 |
| 20260505090654 | 50 | 155 | 2.0 | 5.0 | 0.00 | 0.02 | 0.02 | 87 | 1009.3 |
| 20260505090121 | 51 | 153 | 2.0 | 5.0 | 0.00 | 0.02 | 0.02 | 87 | 1009.4 |
| 20260505085636 | 51 | 201 | 0.0 | 0.0 | 0.00 | 0.02 | 0.02 | 87 | 1009.5 |
| 20260505085123 | 51 | 201 | 0.0 | 0.0 | 0.00 | 0.02 | 0.02 | 87 | 1009.4 |
| 20260505084618 | 51 | 201 | 0.0 | 4.0 | 0.00 | 0.02 | 0.02 | 87 | 1009.2 |
| 20260505084128 | 52 | 201 | 1.0 | 5.0 | 0.00 | 0.02 | 0.02 | 87 | 1009.1 |
| 20260505083642 | 52 | 201 | 4.0 | 5.0 | 0.00 | 0.02 | 0.02 | 86 | 1008.9 |
| 20260505083136 | 52 | 188 | 2.0 | 2.0 | 0.00 | 0.02 | 0.02 | 86 | 1008.6 |
| 20260505082632 | 52 | 188 | 0.0 | 3.0 | 0.00 | 0.02 | 0.02 | 86 | 1008.6 |
| 20260505082141 | 53 | 187 | 1.0 | 3.0 | 0.00 | 0.02 | 0.02 | 86 | 1008.6 |
| 20260505081634 | 53 | 188 | 0.0 | 0.0 | 0.00 | 0.02 | 0.02 | 86 | 1008.6 |
| 20260505081141 | 53 | 188 | 0.0 | 4.0 | 0.00 | 0.02 | 0.02 | 86 | 1008.6 |
| 20260505080633 | 53 | 222 | 2.0 | 3.0 | 0.00 | 0.02 | 0.02 | 86 | 1008.5 |
| 20260505080120 | 53 | 224 | 0.0 | 6.0 | 0.00 | 0.02 | 0.02 | 87 | 1008.5 |
| 20260505075724 | 52 | 224 | 3.0 | 7.0 | 0.00 | 0.02 | 0.02 | 87 | 1008.4 |
| 20260505075118 | 51 | 210 | 5.0 | 7.0 | 0.00 | 0.02 | 0.02 | 87 | 1008.4 |
| 20260505074633 | 51 | 181 | 4.0 | 7.0 | 0.00 | 0.02 | 0.02 | 87 | 1008.3 |
| 20260505074121 | 50 | 216 | 4.0 | 6.0 | 0.00 | 0.02 | 0.02 | 87 | 1008.3 |
| 20260505073632 | 49 | 131 | 3.0 | 9.0 | 0.00 | 0.02 | 0.02 | 87 | 1008.3 |
| 20260505073135 | 49 | 314 | 0.0 | 9.0 | 0.00 | 0.02 | 0.02 | 87 | 1008.6 |
| 20260505072651 | 48 | 214 | 2.0 | 5.0 | 0.00 | 0.02 | 0.02 | 87 | 1008.8 |
| 20260505072124 | 48 | 221 | 3.0 | 4.0 | 0.00 | 0.02 | 0.02 | 87 | 1008.9 |
| 20260505071618 | 48 | 222 | 1.0 | 4.0 | 0.00 | 0.02 | 0.02 | 87 | 1008.8 |
| 20260505071133 | 48 | 260 | 1.0 | 4.0 | 0.00 | 0.02 | 0.02 | 87 | 1008.7 |
| 20260505070619 | 48 | 216 | 2.0 | 4.0 | 0.00 | 0.02 | 0.02 | 87 | 1008.5 |
| 20260505070133 | 48 | 216 | 3.0 | 4.0 | 0.00 | 0.02 | 0.02 | 87 | 1008.5 |
| 20260505065621 | 48 | 214 | 2.0 | 3.0 | 0.00 | 0.02 | 0.02 | 87 | 1008.4 |
| 20260505065135 | 48 | 214 | 2.0 | 3.0 | 0.00 | 0.02 | 0.02 | 87 | 1008.5 |
| 20260505064623 | 48 | 213 | 0.0 | 0.0 | 0.00 | 0.02 | 0.02 | 87 | 1008.4 |
| 20260505064120 | 48 | 213 | 0.0 | 0.0 | 0.00 | 0.02 | 0.02 | 87 | 1008.4 |
| 20260505063634 | 48 | 213 | 0.0 | 0.0 | 0.00 | 0.02 | 0.02 | 87 | 1008.3 |
| 20260505063122 | 49 | 213 | 0.0 | 0.0 | 0.00 | 0.02 | 0.02 | 87 | 1008.3 |
| 20260505062637 | 49 | 213 | 0.0 | 0.0 | 0.00 | 0.02 | 0.02 | 87 | 1008.3 |
| 20260505062124 | 49 | 213 | 0.0 | 0.0 | 0.00 | 0.02 | 0.02 | 86 | 1008.3 |
| 20260505061658 | 49 | 213 | 0.0 | 0.0 | 0.00 | 0.02 | 0.02 | 86 | 1008.5 |
| 20260505061145 | 49 | 213 | 0.0 | 0.0 | 0.00 | 0.02 | 0.02 | 86 | 1008.5 |
| 20260505060618 | 49 | 213 | 0.0 | 0.0 | 0.00 | 0.02 | 0.02 | 86 | 1008.6 |
| 20260505060133 | 49 | 213 | 0.0 | 0.0 | 0.00 | 0.02 | 0.02 | 86 | 1008.6 |